This is the latest recevied weather packets stored in our database for station/object HK6RM-19. If no packets are shown the sender has not sent any weather packets the latest 10 day(s).
| Time | Temp. | Humidity | Pressure | Rain* | Wind** | Luminosity | Snow |
|---|---|---|---|---|---|---|---|
| 1787586617 | 22.22° C | 60% | 1013 hPa | 0 mm | - | - | - |
| 1787585776 | 20.56° C | 60% | 1014 hPa | 0 mm | - | - | - |
| 1787584936 | 20.56° C | 60% | 1014 hPa | 0 mm | - | - | - |
| 1787584095 | 20.56° C | 60% | 1014 hPa | 0 mm | - | - | - |
| 1787583254 | 20.56° C | 60% | 1014 hPa | 0 mm | - | - | - |
| 1787582414 | 18.89° C | 68% | 1014 hPa | 0 mm | - | - | - |
| 1787581574 | 18.89° C | 68% | 1015 hPa | 0 mm | - | - | - |
| 1787580733 | 19.44° C | 68% | 1015 hPa | 0 mm | - | - | - |
| 1787579892 | 19.44° C | 68% | 1015 hPa | 0 mm | - | - | - |
| 1787579052 | 16.11° C | 77% | 1015 hPa | 0 mm | - | - | - |
| 1787578212 | 16.67° C | 77% | 1015 hPa | 0 mm | - | - | - |
| 1787577371 | 16.67° C | 77% | 1015 hPa | 0 mm | - | - | - |
| 1787576531 | 16.67° C | 77% | 1015 hPa | 0 mm | - | - | - |
| 1787575690 | 15.56° C | 81% | 1015 hPa | 0 mm | - | - | - |
| 1787574850 | 15.56° C | 82% | 1015 hPa | 0 mm | - | - | - |
| 1787574009 | 15.56° C | 82% | 1016 hPa | 0 mm | - | - | - |
| 1787573169 | 15.56° C | 82% | 1016 hPa | 0 mm | - | - | - |
| 1787572328 | 15.56° C | 82% | 1016 hPa | 0 mm | - | - | - |
| 1787571488 | 11.67° C | 74% | 1016 hPa | 0 mm | - | - | - |
| 1787570647 | 11.67° C | 74% | 1016 hPa | 0 mm | - | - | - |
| 1787569807 | 11.67° C | 74% | 1016 hPa | 0 mm | - | - | - |
| 1787568966 | 11.67° C | 74% | 1016 hPa | 0 mm | - | - | - |
| 1787568126 | 11.67° C | 74% | 1016 hPa | 0 mm | - | - | - |
| 1787567285 | 11.67° C | 74% | 1016 hPa | 0 mm | - | - | - |
| 1787566445 | 11.67° C | 74% | 1016 hPa | 0 mm | - | - | - |
* Rain latest hour (hover to see other rain measurements)
** Current wind speed in m/s (hover to see current wind gust speed)